RH
92 78 74 56 13 10 10 9 7 7 11 21 33 38 36 32 32 30 26 24 22 19 18 15 14 14 16 20 20 24 29 27 25 22 20 21 17 13 12 17 22 17 12 11 14
73 77 86 66 28 10 10 9 8 8 16 27 40 42 38 33 35 29 30 27 26 23 21 19 16 15 13 14 14 15 13 12 12 13 12 12 12 11 10 10 10 11 14 14 15
79 89 77 56 24 13 10 10 9 10 20 32 45 45 40 33 35 34 33 33 34 30 26 23 19 17 15 13 12 11 10 12 12 16 17 13 10 10 9 10 12 14 14 14 14
93 75 62 69 19 19 11 11 10 12 25 35 48 46 44 35 32 34 34 34 39 35 30 25 21 18 16 14 14 11 12 12 11 12 10 9 8 10 18 18 16 15 14 14 14
71 64 52 28 36 18 12 12 11 13 26 42 48 46 45 39 33 36 33 36 39 38 33 29 25 20 16 14 13 11 11 11 11 10 12 21 22 19 14 16 16 16 14 14 15
71 50 31 22 19 30 17 15 13 15 24 46 54 50 43 43 39 36 42 39 40 38 35 33 27 22 15 14 13 12 12 12 10 11 18 21 20 17 14 17 16 17 16 15 13
68 56 23 22 15 13 14 14 13 18 23 39 55 56 50 46 42 41 40 41 39 37 35 32 26 22 16 14 14 13 11 12 18 19 23 23 15 11 15 16 18 19 16 14 13
53 30 26 19 15 15 16 16 14 17 25 36 47 55 51 48 46 44 43 42 40 38 35 32 25 20 16 16 15 14 13 20 25 22 19 15 10 16 18 18 20 18 17 17 16
16 19 20 17 16 18 16 15 15 18 30 34 40 50 54 46 50 48 46 43 41 40 39 32 26 18 16 17 16 16 18 18 17 18 17 16 14 19 17 19 22 19 18 17 17
13 14 18 16 18 18 16 15 15 21 34 38 40 43 39 38 42 46 46 44 42 40 37 30 18 17 17 17 16 18 21 19 19 21 19 19 18 16 15 19 22 21 20 20 20
37 17 14 16 17 19 16 15 18 27 30 31 37 34 34 33 39 38 38 40 39 37 32 20 19 16 18 19 19 20 24 23 21 20 20 18 15 19 20 23 22 22 21 21 20
29 19 14 15 20 22 18 16 19 28 36 34 44 41 41 43 38 35 35 31 26 22 22 21 19 18 16 18 20 24 24 21 22 23 21 18 19 25 24 25 23 23 23 22 24
30 25 16 16 22 24 20 23 30 37 40 32 35 33 40 40 36 33 34 28 28 24 23 22 20 19 18 20 24 24 21 22 24 24 20 19 24 26 26 24 24 24 25 26 27
30 24 17 16 20 25 26 30 37 42 37 26 21 25 29 35 38 36 35 31 28 25 25 24 19 20 17 17 20 22 24 24 24 25 22 20 22 29 27 24 24 27 27 28 28
33 27 21 17 20 25 32 35 39 40 38 20 23 23 21 25 25 22 30 30 26 26 27 22 23 26 27 27 28 27 25 24 25 26 27 25 30 27 30 27 26 30 30 29 29
32 28 25 18 19 24 30 36 35 32 36 23 25 25 24 23 25 26 26 27 29 32 26 24 24 25 27 27 26 28 28 25 26 28 37 30 33 27 28 28 28 31 32 32 32
31 29 26 21 20 22 25 26 35 34 20 25 30 28 26 27 28 29 28 26 26 34 29 23 20 20 23 26 26 29 31 23 22 34 34 34 34 26 26 28 31 33 34 34 35
30 30 29 25 22 26 32 33 35 23 22 29 31 33 31 29 31 29 30 29 28 27 30 27 27 29 29 29 30 29 28 23 24 28 29 32 30 23 23 26 29 34 37 37 37
31 32 32 29 24 29 36 43 28 23 24 23 33 32 29 29 26 25 28 24 25 21 26 30 28 26 29 30 31 30 28 26 26 38 41 30 26 23 24 24 28 34 38 38 37
31 33 33 31 29 36 48 38 27 26 23 25 28 30 30 28 26 26 23 26 23 24 28 30 29 28 31 32 32 32 30 31 31 33 36 32 29 23 27 28 30 35 37 38 37
32 34 32 34 35 43 57 46 29 29 31 36 35 35 32 30 29 30 33 28 27 27 32 33 32 31 28 26 25 28 31 32 31 32 36 40 28 24 26 29 30 33 36 38 36
37 34 32 34 42 45 52 37 31 29 31 37 36 37 33 31 32 35 33 29 27 30 28 32 36 35 30 28 27 27 30 33 32 36 37 41 33 28 29 31 32 35 37 36 37
38 37 34 35 37 39 42 38 37 34 30 35 36 35 34 33 33 33 32 33 32 30 31 31 36 34 32 32 30 30 28 30 33 35 36 39 32 31 32 33 32 35 37 37 40
46 43 38 39 38 34 37 35 38 39 37 35 34 35 37 34 32 30 29 30 32 34 34 33 32 30 27 25 28 33 34 32 34 39 36 33 28 29 34 36 35 37 40 41 45
52 45 36 36 36 37 35 32 33 37 40 42 39 37 32 32 32 31 28 29 28 27 31 36 36 33 32 34 36 38 37 36 37 35 36 27 34 36 40 43 41 43 44 47 48
54 54 43 42 40 38 38 33 33 38 40 37 38 34 35 34 30 28 29 29 30 32 30 30 36 34 36 37 40 40 37 36 39 38 42 42 42 45 50 55 54 52 53 54 55
71 62 64 64 60 50 41 33 29 40 33 33 34 34 32 32 33 38 39 37 39 36 34 37 40 41 46 42 46 52 24 26 31 38 43 44 29 40 50 62 55 46 56 54 49
Wind_Speed
21 22 18 12 13 14 13 13 13 13 16 18 18 17 15 15 13 9 7 5 3 2 2 2 1 2 4 6 9 11 13 15 14 13 13 14 17 16 19 18 19 20 20 19 16
13 23 27 17 14 14 14 12 13 14 17 19 19 18 16 16 12 10 7 5 3 1 1 1 1 2 3 5 6 8 10 9 9 10 13 15 17 16 17 15 13 17 17 16 15
18 14 34 14 16 16 15 12 12 15 18 20 20 19 17 16 13 11 9 6 3 3 3 2 3 3 3 4 5 9 9 8 9 11 15 15 15 15 13 11 14 14 13 14 15
16 11 13 14 18 17 15 12 12 16 19 20 20 20 18 17 13 14 11 9 5 5 4 4 5 5 5 6 6 8 7 10 9 11 12 12 13 10 7 12 11 13 15 17 19
9 12 19 19 18 18 15 13 13 17 20 21 20 20 20 19 17 8 14 11 10 9 7 7 7 8 7 7 9 10 6 8 10 9 10 5 5 9 11 10 12 15 19 19 16
14 20 19 20 21 20 16 15 16 18 20 22 21 20 21 20 17 14 10 13 12 11 10 10 10 10 12 8 9 11 10 8 11 10 7 6 8 12 7 8 13 17 16 11 11
21 25 18 19 18 18 17 17 18 19 21 24 22 20 21 17 16 16 15 13 13 13 13 13 13 13 11 10 8 10 12 10 7 7 8 9 7 4 5 8 12 11 5 4 5
28 25 19 18 16 16 17 17 17 20 21 23 24 23 22 20 19 15 17 16 16 16 16 16 15 14 11 10 12 12 10 1 4 5 9 9 9 7 7 7 5 1 6 9 11
24 21 18 16 16 16 16 17 18 20 21 22 23 24 24 23 22 19 18 16 16 18 18 17 17 14 11 11 12 7 6 6 6 5 8 9 8 7 12 5 7 7 6 9 11
20 20 18 16 15 15 15 15 18 20 22 21 22 18 21 21 25 23 21 20 19 19 20 17 15 13 9 11 9 5 9 9 8 10 11 8 7 12 12 9 15 11 9 8 6
20 20 17 15 14 14 14 16 19 21 24 23 10 22 3 21 13 18 23 24 21 20 17 14 15 13 11 13 11 10 10 11 11 10 5 7 11 10 6 18 18 14 10 5 1
20 18 16 15 14 14 14 16 15 14 17 21 23 12 21 17 15 15 16 16 15 14 14 13 16 13 14 14 12 12 12 11 9 9 9 10 7 3 15 20 19 14 9 5 1
20 18 16 16 16 14 12 12 13 15 17 19 22 23 23 17 17 16 16 14 16 14 13 15 13 13 8 7 10 11 13 11 12 9 11 6 2 13 18 19 18 14 11 6 3
21 18 18 19 17 14 12 14 13 12 10 12 19 24 25 25 25 22 18 17 18 14 15 14 12 14 13 12 14 12 8 7 8 10 5 9 3 15 18 20 19 16 12 8 6
22 21 20 20 17 16 14 14 12 9 3 5 14 14 21 24 17 21 25 23 23 19 15 10 7 5 4 4 6 7 7 8 10 13 12 7 6 8 21 22 22 18 13 10 8
25 23 22 21 19 16 16 16 14 7 8 6 10 13 16 22 23 12 13 19 22 23 22 20 18 12 8 8 8 8 9 10 12 6 2 4 6 5 17 23 22 20 15 11 9
26 25 24 22 20 18 18 18 13 8 5 6 9 12 13 17 20 21 17 13 13 13 21 19 18 21 19 17 14 11 6 3 2 0 3 4 6 7 10 11 22 18 15 12 10
27 26 25 24 23 22 21 23 8 9 10 5 8 11 11 12 15 15 14 14 14 14 6 9 5 11 9 14 7 7 7 2 3 2 2 6 7 4 10 13 14 22 17 13 11
29 28 28 27 26 25 25 28 17 9 8 11 6 9 11 11 8 12 15 16 12 17 9 7 5 6 6 8 10 7 7 4 3 3 2 4 6 8 11 13 16 20 19 16 11
29 28 28 29 29 28 30 31 22 14 9 10 10 7 8 12 12 9 10 7 18 13 15 8 4 7 8 9 10 11 6 3 4 2 3 4 7 10 12 16 20 23 21 15 16
30 29 30 31 31 32 37 34 31 16 12 10 11 9 8 9 13 13 6 6 8 9 18 15 9 4 7 8 10 12 14 10 6 4 3 2 5 5 6 15 21 23 22 19 19
32 33 31 33 35 39 40 32 31 29 15 11 9 10 8 10 10 12 10 10 7 8 9 15 8 7 8 10 11 12 14 13 8 5 7 3 15 18 13 16 23 25 23 21 20
32 34 30 35 40 41 38 36 32 30 25 17 14 11 11 10 7 10 10 11 10 8 5 10 9 4 3 9 14 15 15 16 18 19 18 6 10 10 10 15 18 26 25 24 29
32 33 33 35 42 39 37 34 33 29 22 23 20 21 15 12 11 7 10 9 12 13 13 13 15 15 13 7 9 13 14 15 18 16 22 33 37 36 24 19 20 23 27 29 34
34 31 32 36 40 38 33 30 32 32 30 26 24 23 22 22 21 17 17 15 13 13 14 16 19 19 19 19 19 19 18 22 26 29 31 41 39 36 30 26 26 29 32 34 34
38 32 34 30 19 32 32 34 31 25 31 30 31 26 26 28 25 22 16 16 19 16 19 21 19 20 21 20 20 24 26 28 31 35 40 42 47 42 43 37 34 35 36 30 18
42 38 32 33 32 25 28 32 33 28 26 22 23 24 24 19 14 13 17 18 18 16 15 18 18 17 20 21 20 19 27 24 26 26 29 33 24 24 19 19 19 17 15 15 16
Wind_Direction
241 225 252 267 282 261 240 229 223 207 194 182 181 182 179 174 172 173 171 163 159 141 117 100 122 191 202 211 223 236 242 256 270 276 276 272 273 280 287 288 285 294 291 303 309
239 236 242 249 275 256 240 227 223 207 195 187 183 187 187 184 184 178 181 180 181 189 203 5 313 279 245 234 247 249 261 274 283 280 280 276 282 287 290 295 299 282 295 304 306
225 256 229 237 273 250 238 229 221 209 198 191 188 191 193 191 194 193 195 194 211 210 235 288 294 289 285 278 276 276 282 278 276 279 284 291 290 290 294 297 275 294 288 296 305
205 243 253 230 254 247 236 228 220 214 202 198 194 196 198 196 202 207 205 208 228 236 256 279 293 296 294 284 290 291 298 289 292 277 282 289 295 292 323 290 293 289 294 302 306
244 250 248 244 249 248 239 228 220 215 208 203 200 202 204 204 206 209 216 220 233 250 266 283 300 302 302 294 289 291 294 294 286 285 290 294 285 305 304 284 284 282 298 311 310
255 255 241 235 221 246 235 234 224 214 210 209 206 206 210 212 211 219 212 217 234 258 273 288 297 296 294 290 284 296 299 293 286 270 253 267 288 304 266 266 281 303 312 310 314
245 251 243 232 222 235 234 228 224 216 211 211 211 213 214 209 216 219 223 232 247 262 278 289 293 295 288 290 284 294 300 295 285 221 251 280 297 270 236 271 309 319 335 348 21
238 243 231 234 226 229 237 231 225 218 216 215 215 219 220 214 220 221 229 240 252 262 273 285 290 289 283 284 289 298 298 195 189 269 279 283 300 284 246 283 303 101 90 83 74
232 234 231 230 230 230 230 227 220 216 218 218 220 224 227 221 222 227 234 241 251 263 273 282 285 275 274 284 287 281 269 285 308 284 295 294 298 246 272 256 180 150 117 93 75
230 230 226 224 233 230 228 224 219 214 217 216 222 227 228 230 226 230 236 243 251 263 272 278 266 264 276 276 276 272 281 289 313 293 296 290 297 282 266 218 171 159 144 120 85
230 229 222 227 230 232 225 218 217 216 219 217 224 228 219 221 217 224 235 242 249 257 259 259 264 269 282 270 269 272 285 295 319 308 309 313 317 304 217 169 164 163 162 158 55
223 227 219 223 224 226 223 221 223 234 233 228 224 208 222 222 208 224 230 233 229 242 250 250 274 280 265 254 257 266 281 300 317 308 316 319 313 177 157 162 162 168 179 186 32
218 221 223 218 218 221 218 214 219 233 249 237 235 231 229 233 228 238 234 237 231 233 240 256 276 274 276 254 254 266 281 295 297 305 312 318 229 169 167 172 173 182 194 198 208
221 216 217 220 215 213 206 207 216 231 259 253 232 230 226 230 239 233 234 234 235 238 249 274 269 258 261 262 258 268 272 287 294 307 300 303 257 190 187 183 186 195 202 212 242
220 222 217 218 213 209 206 201 202 214 283 221 209 204 210 210 226 225 231 235 242 247 247 254 258 252 232 234 245 267 292 292 291 289 298 270 230 201 198 199 197 203 208 220 245
219 219 220 217 209 202 204 203 194 186 248 213 191 203 195 205 213 213 206 225 238 242 249 253 244 244 240 248 269 271 292 292 286 277 255 212 223 216 207 214 205 209 212 222 245
220 219 217 213 206 201 199 193 175 214 223 213 203 198 198 210 213 221 231 238 227 222 240 246 246 249 252 257 258 257 267 298 326 355 212 186 243 249 213 207 211 218 221 227 252
216 216 215 208 202 198 194 189 195 223 217 207 196 190 196 203 212 218 227 230 219 206 179 205 232 227 233 229 229 226 216 226 252 238 268 225 239 215 222 214 211 208 215 230 256
213 211 210 205 201 199 197 194 213 231 213 220 188 198 200 202 206 216 219 232 230 214 208 204 215 211 221 216 213 218 220 225 235 286 294 242 256 247 229 223 208 202 212 228 255
209 209 209 205 202 200 201 210 211 212 214 210 206 205 204 204 202 195 204 223 230 215 212 225 222 217 219 223 225 226 229 216 214 205 266 270 263 238 223 216 204 205 218 234 261
203 201 207 204 201 204 207 212 214 205 208 208 212 210 201 209 207 203 201 211 205 202 214 214 222 215 217 235 244 236 239 230 222 221 200 291 259 249 231 227 217 217 228 245 273
200 201 204 206 201 210 213 215 221 214 208 213 211 213 213 208 207 208 208 215 202 197 199 207 219 230 244 249 250 247 245 237 222 215 221 234 273 268 263 243 229 231 239 258 271
199 206 201 206 210 216 218 220 226 227 221 222 217 217 213 204 207 211 214 218 222 215 210 211 217 201 225 243 245 247 255 256 251 251 250 231 256 240 271 282 253 245 252 262 292
199 202 203 209 217 220 221 226 226 230 231 228 230 230 223 223 230 225 220 224 226 233 239 240 240 245 239 257 264 272 276 272 257 249 252 254 270 275 269 269 265 249 259 269 293
199 207 209 213 217 220 223 227 232 233 233 231 232 231 235 241 242 238 246 246 243 243 239 240 250 259 265 265 270 274 272 274 265 269 257 279 274 280 275 271 267 260 266 279 290
204 203 210 219 212 226 224 229 232 232 235 239 238 242 244 247 254 256 255 254 250 248 243 245 251 261 264 266 271 275 275 270 269 271 269 273 278 281 279 272 258 261 266 273 262
213 213 219 229 227 226 229 233 232 229 234 236 242 241 243 245 242 231 238 245 246 246 242 242 244 255 267 274 279 276 280 281 279 276 274 271 298 285 266 251 250 243 232 257 279